Regional Weather Roundup
Issued by NWS Charleston, SC

Current Version | Previous Version | Graphics & Text | Print | Product List | Glossary On
Versions: 1 2 3 4 5 6 7 8 9 10 11 12 13 14 15 16 17 18 19 20 21 22 23 24 25 26 27 28 29 30 31 32 33 34 35 36 37 38 39 40 41 42 43 44 45 46 47 48 49 50
000
ASUS42 KCHS 272110
RWRCHS
REGIONAL WEATHER ROUNDUP
NATIONAL WEATHER SERVICE CHARLESTON SC
400 PM EST SAT DEC 27 2014

NOTE: "FAIR" INDICATES FEW OR NO CLOUDS BELOW 12,000 FEET WITH NO
SIGNIFICANT WEATHER AND/OR OBSTRUCTIONS TO VISIBILITY.

NOT ALL STATIONS ARE QUALITY CONTROLLED BY THE NATIONAL
WEATHER SERVICE. USE DATA WITH CAUTION...ESPECIALLY
DEWPOINT OBSERVATIONS.

SCZ027-030-031-034>040-042>050-272200-
...SOUTHEAST SOUTH CAROLINA...

CITY           SKY/WX    TMP DP  RH WIND       PRES   REMARKS
N CHARLESTON   MOSUNNY   68  50  52 SE5       30.23F
WATERFRONT PRK   N/A     61 N/A N/A SE7         N/A
MOUNT PLEASANT FAIR      64  52  63 CALM      30.24S
PINOPOLIS        N/A     70  52  52 VRB2      30.15
MONCKS CORNER  FAIR      68  50  52 SE3       30.23S
SUMMERVILLE    FAIR      70  54  56 SE3       30.23S
BEAUFORT MCAS  SUNNY     64  51  62 E7        30.23F
BEAUFORT ARPT  FAIR      64  52  63 E6        30.22F HAZE
HILTON HEAD IS SUNNY     61  48  63 NE6       30.24F
WALTERBORO     CLEAR     70  46  43 SE7       30.23S
ALLENDALE      FAIR      68  52  56 CALM      30.22R

...SOUTHERN MIDLANDS AND PEE DEE...

CITY           SKY/WX    TMP DP  RH WIND       PRES   REMARKS
GEORGETOWN     NOT AVBL
KINGSTREE      NOT AVBL
ORANGEBURG     SUNNY     66  47  50 CALM      30.23S
BARNWELL       FAIR      70  48  46 SW3       30.24R
AIKEN          FAIR      64  37  36 SW5       30.27R
MANNING        FAIR      64  46  52 CALM      30.24S
COLUMBIA       MOSUNNY   66  35  31 CALM      30.22F
SUMTER         SUNNY     65  39  38 SW1       30.22R
FLORENCE       SUNNY     66  43  43 SW7       30.23R
MYRTLE BEACH   SUNNY     59  43  55 S9        30.27S
N MYRTLE BEACH SUNNY     59  43  55 S5        30.25S

$$

GAZ063-065-086>088-099>101-113>116-118-119-134>141-150-272200-
...SOUTHEAST GEORGIA...

CITY           SKY/WX    TMP DP  RH WIND       PRES   REMARKS
SAVANNAH ARPT  MOSUNNY   68  51  54 SE7       30.22F
HUNTER AAF     SUNNY     66  51  58 E10       30.20F
FORT STEWART   SUNNY     69  53  56 E8        30.20S
STATESBORO     SUNNY     69  54  59 S3        30.22R
SYLVANIA       CLEAR     69  55  59 CALM      30.22S
CLAXTON        FAIR      66  57  72 CALM      30.21S

...CSRA...CENTRAL AND FAR SOUTHEAST GEORGIA...

CITY           SKY/WX    TMP DP  RH WIND       PRES   REMARKS
THOMSON        MOSUNNY   66  45  46 CALM      30.26F
AUGUSTA-BUSH   SUNNY     65  43  44 E5        30.22S
AUGUSTA-DANIEL SUNNY     64  42  44 E3        30.23S
SWAINSBORO     FAIR      70  55  60 S3        30.21S
VIDALIA        SUNNY     70  55  60 SE6       30.21R
EASTMAN        FAIR      70  55  59 CALM      30.22S
HAZLEHURST     FAIR      72  57  59 E5        30.19S
ALMA           SUNNY     71  55  56 SE7       30.19S
WAYCROSS       PTSUNNY   75  61  60 SE5       30.19S
JESUP          FAIR      72  61  68 SE6       30.20S
BAXLEY         FAIR      72  57  60 S3        30.19S
BRUNSWICK      SUNNY     68  54  60 E12       30.22S
SAINT SIMONS   SUNNY     65  55  70 NE9       30.21F

$$

SCZ027-028-034-036>038-045-046-048>050-GAZ119-141-272200-
...LAKE AND SUPPLEMENTAL COASTAL OBSERVATIONS...

STATION/POSITION TIME  TEMP    WIND        PRES    WAVE   SWELL
                       AIR SEA DIR/SP/G            HT/PER HT/PER/DIR
                 (UTC) (F)     (DEG/KT/KT) (MB)    (FT/S) (FT/S/D)
UPR LAKE MARION  NOT AVBL
WINYAH BAY       2000   60     110/  4     1024.0S
LAKE MURRAY      2000   61     130/  3/  5 1023.0S
ACE BASIN NERRS  2000   64        CALM     1024.0S
FORT PULASKI     2100   59 56   70/ 10/ 12 1023.9F
SAPELO ISLAND    2000   66      40/  9     1023.0S

$$

ANZ835-935-AMZ111-154-330-350-352-354-370-450-454-472-272200-
...C-MAN AND BUOY OBSERVATIONS...

STATION/POSITION TIME  TEMP    WIND        PRES    WAVE   SWELL
                       AIR SEA DIR/SP/G            HT/PER HT/PER/DIR
                 (UTC) (F)     (DEG/KT/KT) (MB)    (FT/S) (FT/S/D)
BUOY 41004       2100   66 74   40/ 10/ 12 1023.5S   3/ 9   2/ 9
BUOY 41008       2100   61 59   40/ 12/ 14 1023.0F   2/13   2/ 60/13
FOLLY BEACH CMAN 2100   58      60/  5/  6 1024.4F
CAPERS NEARSHORE 2000   60      80/  8/ 10   N/A
FRIPP NEARSHORE  NOT AVBL


STATION/POSITION TIME  TEMP    WIND        PRES    WAVE   SWELL
                       AIR SEA DIR/SP/G            HT/PER HT/PER/DIR
                 (UTC) (F)     (DEG/KT/KT) (MB)    (FT/S) (FT/S/D)
5E ST. MARYS GA  2100      61                N/A     2/ 5   2/ 90/13
FRYING PAN BUOY  2100   63 69   90/  6/  6 1024.8F   3/17   3/130/17
BUOY 41025       2100   62                 1024.7F   3/16
CAPE LOOKOUT NC  2100   56     160/  3/  3 1024.5R
BUOY 41002       2047   69 74  120/ 10/ 14 1024.7F   5/16   5/ 80/16
BUOY 41010       2100   74 77   60/ 12/ 16 1022.3R   3/13   3/ 90/13
ST AUGUSTINE FL  2100   65      20/  5/  5 1022.6F


$$


USA.gov is the U.S. government's official web portal to all federal, state and local government web resources and services.